Weather History for Iron Mountain, MI

Change the Weather History Date:

Saturday, August 3, 2013

  Actual Average Record
Temperature  
Mean Temperature 60 °F -  
Max Temperature 75 °F 79 °F 97 °F (1988)
Min Temperature 48 °F 54 °F 42 °F (1945)
Degree Days  
Heating Degree Days 4    
Growing Degree Days 10 (Base 50)    
Moisture  
Dew Point 49 °F    
Average Humidity 67    
Maximum Humidity 93    
Minimum Humidity 44    
Precipitation  
Precipitation 0.00 in - - ()
Sea Level Pressure  
Sea Level Pressure 30.07 in    
Wind  
Wind Speed 5 mph (NNW)    
Max Wind Speed 15 mph    
Max Gust Speed 23 mph    
Visibility 10 miles    
Events      
Averages and records for this station are not official NWS values.
T = Trace of Precipitation, MM = Missing Value Source: NWS Daily Summary

Daily Weather History Graph

Daily Weather History Graph

Search for Another Location

Airport:

Trip Planner

Search our weather history database for the weather conditions in past years. The results will help you decide how hot, cold, wet, or windy it might be!

Date:

Astronomy

Aug. 03, 2013 Rise Set
Actual Time 5:38 AM CDT 8:18 PM CDT
Civil Twilight 5:03 AM CDT 8:52 PM CDT
Nautical Twilight 4:20 AM CDT 9:35 PM CDT
Astronomical Twilight 3:30 AM CDT 10:24 PM CDT
Moon 2:45 AM CDT (8/3) 6:02 PM CDT (8/3)
Length of Visible Light 15h 48m
Length of Day
14h 40m
Waning Crescent, 9% of the Moon is Illuminated
Aug 3
Waning Crescent
Aug 6
New
Aug 14
First Quarter
Aug 20
Full
Aug 28
Last Quarter

Hourly Weather History & Observations

Time (CDT) Temp. Dew Point Humidity Pressure Visibility Wind Dir Wind Speed Gust Speed Precip Events Conditions
12:54 AM 55.0 °F 48.9 °F 80% 29.98 in 10.0 mi NW 4.6 mph - N/A   Clear
1:54 AM 53.1 °F 48.0 °F 83% 29.99 in 10.0 mi Calm Calm - N/A   Clear
2:54 AM 50.0 °F 46.9 °F 89% 29.99 in 10.0 mi Calm Calm - N/A   Clear
3:54 AM 50.0 °F 46.9 °F 89% 30.01 in 10.0 mi Calm Calm - N/A   Clear
4:54 AM 50.0 °F 46.9 °F 89% 30.02 in 10.0 mi Calm Calm - N/A   Clear
5:54 AM 48.0 °F 46.0 °F 93% 30.03 in 10.0 mi Calm Calm - N/A   Clear
6:54 AM 53.1 °F 48.9 °F 86% 30.05 in 10.0 mi Calm Calm - N/A   Clear
7:54 AM 57.9 °F 50.0 °F 75% 30.05 in 10.0 mi NW 5.8 mph - N/A   Clear
8:54 AM 63.0 °F 52.0 °F 67% 30.04 in 10.0 mi Calm Calm - N/A   Clear
9:54 AM 68.0 °F 51.1 °F 55% 30.05 in 10.0 mi NNW 11.5 mph - N/A   Clear
10:54 AM 68.0 °F 48.9 °F 50% 30.06 in 10.0 mi NW 12.7 mph 20.7 mph N/A   Mostly Cloudy
11:54 AM 72.0 °F 51.1 °F 48% 30.06 in 10.0 mi NW 11.5 mph 18.4 mph N/A   Mostly Cloudy
12:54 PM 71.1 °F 48.0 °F 44% 30.07 in 10.0 mi WNW 11.5 mph - N/A   Overcast
1:54 PM 72.0 °F 48.9 °F 44% 30.06 in 10.0 mi NW 13.8 mph 23.0 mph N/A   Mostly Cloudy
2:54 PM 73.0 °F 51.1 °F 46% 30.07 in 10.0 mi West 12.7 mph - N/A   Mostly Cloudy
3:54 PM 72.0 °F 51.1 °F 48% 30.08 in 10.0 mi NNW 12.7 mph 19.6 mph N/A   Overcast
4:54 PM 72.0 °F 51.1 °F 48% 30.08 in 10.0 mi NW 12.7 mph 20.7 mph N/A   Partly Cloudy
5:54 PM 71.1 °F 50.0 °F 47% 30.09 in 10.0 mi NNW 15.0 mph 23.0 mph N/A   Clear
6:54 PM 68.0 °F 48.9 °F 50% 30.11 in 10.0 mi North 12.7 mph - N/A   Clear
7:54 PM 64.9 °F 50.0 °F 58% 30.12 in 10.0 mi NNW 9.2 mph - N/A   Clear
8:54 PM 57.9 °F 50.0 °F 75% 30.13 in 10.0 mi NNW 3.5 mph - N/A   Clear
9:54 PM 55.9 °F 50.0 °F 80% 30.14 in 10.0 mi North 3.5 mph - N/A   Clear
10:54 PM 52.0 °F 48.0 °F 86% 30.16 in 10.0 mi North 3.5 mph - N/A   Clear
11:54 PM 51.1 °F 48.0 °F 89% 30.17 in 10.0 mi Calm Calm - N/A   Clear